Weather History for Roatan, Honduras

Change the Weather History Date:

Sunday, October 6, 2013

  Actual Average Record
Temperature  
Mean Temperature 85 °F -  
Max Temperature 90 °F 84 °F 91 °F (1996)
Min Temperature 80 °F 76 °F 69 °F (2004)
Cooling Degree Days 20    
Growing Degree Days 35 (Base 50)    
Moisture  
Dew Point 76 °F    
Average Humidity 68    
Maximum Humidity 79    
Minimum Humidity 55    
Precipitation  
Precipitation 0.00 in - - ()
Sea Level Pressure  
Sea Level Pressure 29.84 in    
Wind  
Wind Speed 11 mph ()    
Max Wind Speed 16 mph    
Max Gust Speed -    
Visibility 7.8 miles    
Events      
Averages and records for this station are not official NWS values.
T = Trace of Precipitation, MM = Missing Value Source: Averaged Metar Reports

Daily Weather History Graph

Daily Weather History Graph

Search for Another Location

Airport:

Trip Planner

Search our weather history database for the weather conditions in past years. The results will help you decide how hot, cold, wet, or windy it might be!

Date:

Astronomy

Oct. 06, 2013 Rise Set
Actual Time 5:36 AM CST 5:31 PM CST
Civil Twilight 5:15 AM CST 5:52 PM CST
Nautical Twilight 4:50 AM CST 6:17 PM CST
Astronomical Twilight 4:25 AM CST 6:42 PM CST
Moon 7:01 AM CST (10/6) 6:52 PM CST (10/6)
Length of Visible Light 12h 37m
Length of Day
11h 54m
Waxing Crescent, 4% of the Moon is Illuminated
Oct 6
Waxing Crescent
Oct 11
First Quarter
Oct 18
Full
Oct 26
Last Quarter
Nov 3
New

Hourly Weather History & Observations

Time (CST) Temp. Heat Index Dew Point Humidity Pressure Visibility Wind Dir Wind Speed Gust Speed Precip Events Conditions
6:00 AM 83 °F - 76 °F 75% 29.85 in 16 mi East 13.8 mph - -   Scattered Clouds
6:00 AM 84.2 °F 94.1 °F 77.0 °F 79% 29.86 in 6.2 mi East 13.8 mph - N/A   Mostly Cloudy
7:00 AM 86.0 °F 96.9 °F 77.0 °F 74% 29.86 in 6.2 mi East 16.1 mph - N/A   Mostly Cloudy
8:00 AM 87.8 °F 99.7 °F 77.0 °F 70% 29.86 in 6.2 mi East 13.8 mph - N/A   Mostly Cloudy
9:00 AM 88 °F - 76 °F 60% 29.89 in 16 mi East 12.7 mph - -   Scattered Clouds
9:00 AM 87.8 °F 99.7 °F 77.0 °F 70% 29.89 in 6.2 mi East 12.7 mph - N/A   Scattered Clouds
10:00 AM 89.6 °F 102.2 °F 77.0 °F 66% 29.89 in 6.2 mi East 12.7 mph - N/A   Scattered Clouds
11:00 AM 89.6 °F 102.2 °F 77.0 °F 66% 29.89 in 6.2 mi East 11.5 mph - N/A   Scattered Clouds
12:00 PM 90 °F - 76 °F 55% 29.86 in 12 mi East 11.5 mph - -   Haze
12:00 PM 89.6 °F 99.8 °F 75.2 °F 62% 29.86 in 6.2 mi East 11.5 mph - N/A   Scattered Clouds
1:00 PM 89.6 °F 99.8 °F 75.2 °F 62% 29.83 in 6.2 mi East 12.7 mph - N/A   Scattered Clouds
2:00 PM 89.6 °F 99.8 °F 75.2 °F 62% 29.80 in 6.2 mi East 13.8 mph - N/A   Scattered Clouds
3:00 PM 90 °F - 76 °F 55% 29.81 in 10 mi East 12.7 mph - -   Haze
3:00 PM 89.6 °F 99.8 °F 75.2 °F 62% 29.80 in 6.2 mi East 12.7 mph - N/A   Partly Cloudy
4:00 PM 87.8 °F 97.6 °F 75.2 °F 66% 29.77 in 6.2 mi East 11.5 mph - N/A   Scattered Clouds
5:00 PM 86.0 °F 96.9 °F 77.0 °F 74% 29.80 in 6.2 mi East 11.5 mph - N/A   Scattered Clouds
6:00 PM 85 °F - 75 °F 66% 29.82 in 9 mi ENE 10.4 mph - -   Haze
6:00 PM 84.2 °F 92.3 °F 75.2 °F 74% 29.80 in 6.2 mi ENE 10.4 mph - N/A   Mostly Cloudy
7:00 PM 84.2 °F 92.3 °F 75.2 °F 74% 29.83 in 6.2 mi NE 4.6 mph - N/A   Scattered Clouds
8:00 PM 84.2 °F 94.1 °F 77.0 °F 79% 29.86 in 6.2 mi East 13.8 mph - N/A   Scattered Clouds